User: anonymous   Login
Location: Bou Ouachlou
(32.7770°N, 5.6009°W)
Time: 11:01:06
(UTC+00:00)
Language:

COBE Rocket - Orbit

View from above orbital plane
View from above orbital plane
View from above satellite
View from above satellite

Ground track
Ground track

The orbit data is extracted from the following two-line orbital elements,

1 20323U 89089B   20226.90651522 -.00000003 +00000-0 +82674-5 0  9992
2 20323 097.0979 003.5598 0072896 051.1124 309.6545 14.48354682601182
Epoch (UTC): 13 August 2020 21:45:22
Eccentricity: 0.0072896
inclination: 97.0979°
perigee height: 679 km
apogee height: 783 km
right ascension of ascending node: 3.5598°
argument of perigee: 51.1124°
revolutions per day: 14.48354682
mean anomaly at epoch: 309.6545°
orbit number at epoch: 60118

The dashed part of the orbit path shows where the satellite is in the earth's shadow,  

DLR